Kahului, HI

6:36 AM HST on May 26, 2015 (GMT -1000)
Wailuku Kehalani | | Change Station
CLOSE
Current Station
Personal Weather Station
Location: Wailuku, HI
Elevation: 259 ft
Nearby Weather Stations

Elev 259 ft 20.87 °N, 156.50 °W | Updated 48 seconds ago

Clear
Clear
66.7 °F
Feels Like 66.7 °F
N
0.4
Wind Variable Wind from NNW
Gusts 2.5 mph

Today
High -- | Low -- °F
--% Chance of Precip.
Yesterday
High -- | Low -- °F
Precip. -- in
5:45 AM 7:00 PM
First Quarter, 59% visible
Pressure 29.95 in
Visibility 10.0 miles
Clouds Clear
Dew Point 60 °F
Humidity 80%
Rainfall 0.00 in
Snow Depth Not available.
UV 1.0 out of 12
Pollen Not available.
Air Quality Not available.
Flu Activity Local Activity
METAR PHOG 261554Z 15005KT 10SM CLR 16/16 A2994 RMK AO2 SLP142 T01610156 $

More Conditions Fewer Conditions

Pressure 29.95 in
Visibility 10.0 miles
Clouds Clear
Dew Point 60 °F
Humidity 80%
Rainfall 0.00 in
Snow Depth Not available.
UV 1.0 out of 12
Pollen Not available.
Air Quality Not available.
Flu Activity Local Activity
METAR PHOG 261554Z 15005KT 10SM CLR 16/16 A2994 RMK AO2 SLP142 T01610156 $

More Conditions Fewer Conditions

10-Day Weather Forecast

Almanac

Astronomy

May. 26, 2015 Rise Set
Actual Time
Civil Twilight
Nautical Twilight
Astronomical Twilight
Moon
Length of Visible Light
Length of Day
Tomorrow will be .
, % of the Moon is Illuminated

Today's Extremes

State Highs State Lows

Community

WunderPhotos

Upload Photos

1,824,379 photos uploaded!

WunderBlogs® & News

Nearby

Air Quality

  Air Quality AQ Index Pollutant
Not available.

Snow Depth

Station Depth Elevation

Earthquake Activity

City Distance Mag. Time & Date
Minimum magnitude displayed is 2.5.

Coastal Water Temperatures

Place Temperature

Stations

Nearby Weather Stations

Station Location Temp. Windchill Dew Point Humidity Wind Precip. Elev Updated Type